Home > Weather > East London > Past weeks

Flag for South Africa Past Weather in East London, South Africa — Yesterday and Last 2 Weeks

Now
54 °F

Clear.


Feels Like: 54 °F
Forecast: 59 / 82 °F
Wind: 2 mph from North

Location: Port Elizabeth Airport

Current Time: May 30, 2016 at 1:03:43 AM

Latest Report: May 30, 2016 at 12:00 AM


Visibility: 10 mi

Pressure: 30.04 "Hg

Humidity: 67%

Dew Point: 43 °F

Location of East LondonLocation

Past Weather in East London — Graph

°F

East London Temperature Yesterday

Maximum temperature yesterday: 84 °F (at 1:00 PM)
Minimum temperature yesterday: 48 °F (at 5:00 AM)
Average temperature yesterday: 61 °F

High & Low Weather Summary for the Past Weeks

 TemperatureHumidityPressure
High90 °F (May 18, 2:00 PM)100% (May 15, 12:00 AM)30.51 "Hg (May 15, 12:00 AM)
Low45 °F (May 26, 6:00 AM)26% (May 18, 2:00 PM)29.89 "Hg (May 18, 3:00 PM)
Average61 °F77%30.19 "Hg
* Reported May 15 12:00 AM — May 29 11:00 PM, East London, Weather by CustomWeather, © 2016

Note: Actual official high and low records may vary slightly from our data, if they occured in-between our weather recording intervals... More about our weather records

Advertising

East London Weather History for the Previous 24 Hours

Scroll right to see more
 ConditionsComfort  
Time TempWeatherWind HumidityBarometerVisibility
11:00 PM
Sun, May 29
55 °FClear.3 mph59%30.04 "Hg10 mi
10:00 PM55 °FClear.3 mph63%30.04 "Hg10 mi
9:00 PM55 °FClear.5 mph67%30.04 "Hg10 mi
8:00 PM59 °FPassing clouds.3 mph63%30.04 "HgN/A
7:00 PM59 °FClear.3 mph63%30.04 "Hg10 mi
6:00 PM66 °FClear.2 mph52%30.04 "Hg10 mi
5:00 PM75 °FPassing clouds.5 mph39%30.04 "HgN/A
4:00 PM84 °FSunny.3 mph31%30.01 "Hg10 mi
1:00 PM84 °FPassing clouds.6 mph29%30.04 "HgN/A
12:00 PM82 °FPassing clouds.6 mph30%30.07 "HgN/A
10:00 AM75 °FSunny.2 mph39%30.09 "Hg10 mi
9:00 AM64 °FSunny.2 mph60%30.09 "Hg10 mi
8:45 AM63 °FSunny.1 mph64%30.09 "Hg10 mi
8:00 AM50 °FPassing clouds.3 mph76%30.09 "HgN/A
7:00 AM52 °FSunny.5 mph67%30.09 "Hg10 mi
6:00 AM55 °FClear.3 mph63%30.07 "Hg10 mi
5:00 AM48 °FClear.3 mph76%30.07 "Hg10 mi
4:00 AM54 °FPassing clouds.3 mph67%30.07 "HgN/A
3:00 AM50 °FClear.3 mph76%30.07 "Hg10 mi
2:00 AM50 °FClear.3 mph76%30.09 "Hg10 mi
1:00 AM55 °FClear.3 mph67%30.09 "Hg10 mi
Weather by CustomWeather, © 2016

See weather overviewHow to use our weather pages